Location: Cruquius
(52.3348°N, 4.6319°E)
Time: 20:52:13
(UTC+00:00)

Cosmos 2369 Rocket - Pass Details

Date: 12 May 2021
Orbit: 827 x 854 km, 71.0° (Epoch: 23 June)

Event Time Altitude Azimuth Distance (km) Brightness Sun altitude
Exits shadow 23:43:32 24° 226° (SW) 1,659 3.3 -19.3°
Maximum altitude 23:46:57 68° 304° (NW) 903 2.4 -19.2°
Drops below altitude 10° 23:52:37 10° 28° (NNE) 2,473 5.6 -19.2°
Sets 23:55:06 0° 31° (NNE) 3,416 6.5 -19.2°
